CDT,Max TemperatureF,Mean TemperatureF,Min TemperatureF,Max Dew PointF,MeanDew PointF,Min DewpointF,Max Humidity, Mean Humidity, Min Humidity, Max Sea Level PressureIn, Mean Sea Level PressureIn, Min Sea Level PressureIn, Max VisibilityMiles, Mean VisibilityMiles, Min VisibilityMiles, Max Wind SpeedMPH, Mean Wind SpeedMPH, Max Gust SpeedMPH,PrecipitationIn, CloudCover, Events, WindDirDegrees
2012-10-1,62,60,57,59,55,52,93,83,72,29.77,29.69,29.61,10,7,2,18,10,26,0.18,7,Rain,10
2012-10-2,61,58,55,54,52,50,86,78,69,29.93,29.79,29.69,10,10,10,13,5,18,0.00,8,,315
2012-10-3,76,65,53,55,52,49,89,66,43,30.11,30.02,29.94,10,10,8,13,6,18,0.00,2,,190
2012-10-4,80,69,58,58,56,53,86,66,45,30.23,30.16,30.12,10,10,7,15,5,20,0.00,0,,205
2012-10-5,71,57,43,59,50,41,93,80,66,30.16,30.11,29.99,10,8,4,23,9,31,0.44,5,Rain-Thunderstorm,358
2012-10-6,57,48,38,41,37,31,96,69,41,30.24,30.19,30.16,10,10,10,15,7,18,0.00,4,,4
2012-10-7,57,50,42,40,36,33,83,63,43,30.26,30.21,30.17,10,10,10,14,5,20,0.00,3,,348
2012-10-8,61,49,37,42,38,33,92,64,36,30.25,30.18,30.12,10,10,10,9,1,12,0.00,2,,341
2012-10-9,64,51,37,45,40,36,92,68,44,30.15,30.07,29.98,10,10,7,14,4,20,0.00,0,,213
2012-10-10,59,48,37,50,38,27,85,58,30,30.26,30.17,30.00,10,10,10,16,7,24,0.00,4,,324
2012-10-11,61,48,34,45,38,32,96,66,36,30.29,30.23,30.17,10,10,10,14,3,20,0.16,5,,174
2012-10-12,62,57,52,54,52,46,93,83,72,30.33,30.24,30.16,10,8,2,13,4,16,0.10,6,Rain-Thunderstorm,65
2012-10-13,79,67,55,66,58,52,100,77,54,30.24,30.13,29.93,10,6,0,15,8,23,0.00,6,Fog,163
2012-10-14,73,65,56,65,60,53,87,74,61,29.93,29.86,29.78,10,9,4,31,12,41,0.17,5,Rain,220
2012-10-15,71,59,47,52,47,43,93,64,35,30.02,29.97,29.94,10,10,10,13,4,16,0.00,0,,271
2012-10-16,77,61,45,54,49,43,93,67,41,29.97,29.86,29.74,10,10,9,14,5,21,0.00,0,,193
2012-10-17,78,67,55,59,53,48,93,67,40,29.78,29.61,29.40,10,9,0,31,10,41,0.93,4,Fog-Rain-Thunderstorm,201
2012-10-18,65,57,49,52,41,31,93,62,30,29.73,29.68,29.61,10,10,10,26,11,33,0.00,0,,235
2012-10-19,58,54,49,44,39,34,71,59,46,29.83,29.70,29.62,10,10,6,21,10,26,0.02,6,Rain,254
2012-10-20,64,53,42,45,43,40,93,71,48,29.95,29.90,29.83,10,10,10,15,6,20,0.00,3,,231
2012-10-21,78,62,45,58,50,43,92,69,46,30.03,29.99,29.96,10,10,10,14,6,18,0.00,2,,179
2012-10-22,81,71,61,57,51,44,67,48,28,30.08,30.03,30.00,10,10,10,18,8,28,0.00,0,,189
2012-10-23,79,70,61,59,53,48,72,60,47,30.06,30.01,29.96,10,10,10,17,7,25,0.00,1,,197
2012-10-24,80,70,60,61,57,53,78,63,48,30.07,30.01,29.96,10,10,10,16,7,23,0.00,0,,188
2012-10-25,81,66,50,61,58,49,83,67,51,30.04,29.94,29.88,10,10,10,24,9,31,T,2,,190
2012-10-26,50,46,41,45,41,35,93,82,70,30.25,30.18,30.06,10,6,2,23,12,30,0.92,7,Rain,8
2012-10-27,55,46,37,36,33,30,85,62,38,30.21,30.17,30.11,10,10,10,22,13,26,0.00,0,,8
2012-10-28,55,46,37,37,33,32,85,64,43,30.19,30.16,30.13,10,10,10,18,11,25,0.00,1,,356
2012-10-29,56,46,36,33,29,25,85,59,32,30.24,30.16,30.04,10,10,10,21,11,28,0.00,0,,341
2012-10-30,58,49,39,28,26,23,64,45,25,30.03,29.92,29.84,10,10,10,23,8,35,0.00,0,,299
2012-10-31,58,45,31,31,26,17,82,53,23,29.98,29.93,29.89,10,10,10,15,6,20,0.00,0,,278